Location: Nairn
(57.5833°N, 3.8667°W)
Time: 00:56:12
(UTC+00:00)

SL-14 R/B - Pass Details

Date: 07 August 2020
Orbit: 517 x 555 km, 82.4° (Epoch: 19 September)

Event Time Altitude Azimuth Distance (km) Brightness Sun altitude
Rises 02:54:18 0° 343° (NNW) 2,717 7.4 -9.6°
Reaches altitude 10° 02:56:31 10° 338° (NNW) 1,813 6.4 -9.4°
Maximum altitude 03:00:20 46° 265° (W) 726 3.6 -9.1°
Drops below altitude 10° 03:04:05 10° 191° (SSW) 1,776 5.4 -8.8°
Enters shadow 03:04:22 - 190° (S) 1,888 5.5 -8.8°
